Orbital Elements at Epoch 2459000.5 (2020-May-31.0) TDB
Reference: JPL 17 (heliocentric ecliptic J2000)
Element | Value | Uncertainty (1-sigma) | Units |
e | .07444571188093049 | 7.8779e-08 | |
a | 2.59139826077632 | 3.319e-08 | au |
q | 2.398479772485821 | 2.1448e-07 | au |
i | 20.88235194906645 | 8.5527e-06 | deg |
node | 233.9825337916482 | 1.6437e-05 | deg |
peri | 281.8946033530215 | 7.6018e-05 | deg |
M | 116.2253170475262 | 6.8203e-05 | deg |
tp | 2458508.576114807546 (2019-Jan-25.07611481) | 0.00029016 | TDB |
period | 1523.700714852579 4.17 | 2.9273e-05 8.015e-08 | d yr |
n | .2362668708433537 | 4.5391e-09 | deg/d |
Q | 2.784316749066818 | 3.5661e-08 | au |
|
| | Orbit Determination Parameters
Additional Information
|